Regional Weather Roundup
Issued by NWS Raleigh/Durham, NC

Home | Current Version | Previous Version | Text Only | Print | Product List | Glossary On
Versions: 1 2 3 4 5 6 7 8 9 10 11 12 13 14 15 16 17 18 19 20 21 22 23 24 25 26 27 28 29 30 31 32 33 34 35 36 37 38 39 40 41 42 43 44 45 46 47 48 49 50
909
ASUS42 KRAH 231110
RWRRAH
NORTH CAROLINA WEATHER ROUNDUP
NATIONAL WEATHER SERVICE RALEIGH NC
700 AM EDT THU MAR 23 2017

NOTE: "FAIR" INDICATES FEW OR NO CLOUDS BELOW 12,000 FEET WITH NO
SIGNIFICANT WEATHER AND/OR OBSTRUCTIONS TO VISIBILITY.

NCZ001-053-055-056-065-067-231200-
WESTERN NORTH CAROLINA

CITY           SKY/WX    TMP DP  RH WIND       PRES   REMARKS
ASHEVILLE      CLEAR     31  26  82 CALM      30.44R
JEFFERSON      CLEAR     28   9  43 CALM      30.42R
HICKORY        PTCLDY    33  21  61 N3        30.49R
RUTHERFORDTON  CLEAR     37  18  45 CALM      30.49R
MOUNT AIRY     CLEAR     37   7  28 E3        30.52R
BOONE          CLEAR     24  18  80 CALM      30.43R
$$

NCZ021-022-025-041-071-084-088-231200-
CENTRAL NORTH CAROLINA

CITY           SKY/WX    TMP DP  RH WIND       PRES   REMARKS
CHARLOTTE      CLEAR     39  17  41 NE9       30.48R WCI  33
GREENSBORO     PTCLDY    32  14  47 E6        30.51R WCI  26
WINSTON-SALEM  CLEAR     33  10  38 NE6       30.52R WCI  28
RALEIGH-DURHAM PTCLDY    32  14  47 NE8       30.53R WCI  25
FORT BRAGG     CLEAR     36  23  60 NE5       30.49R WCI  32
FAYETTEVILLE   CLEAR     35  26  69 NE7       30.50R WCI  29
BURLINGTON     PTCLDY    31  16  54 NE6       30.52R WCI  25
LAURINBURG     PTCLDY    34  27  75 CALM      30.51R
$$

NCZ011-015-027-028-043-044-047-080-103-231200-
NORTHEASTERN NORTH CAROLINA

CITY           SKY/WX    TMP DP  RH WIND       PRES   REMARKS
ROCKY MT-WILSO PTCLDY    29  23  78 N7        30.54R WCI  22
GREENVILLE     PTCLDY    32  28  86 N3        30.53R
WASHINGTON     CLEAR     32  25  73 NE3       30.53R
ELIZABETH CITY CLEAR     35  23  61 N9        30.57R WCI  28
MANTEO         CLEAR     38  23  55 NE12G18   30.54R WCI  30
CAPE HATTERAS  CLEAR     41  23  48 NE13G22   30.50R
$$

NCZ078-087-090-091-093-098-101-231200-
SOUTHEASTERN NORTH CAROLINA

CITY           SKY/WX    TMP DP  RH WIND       PRES   REMARKS
LUMBERTON      CLEAR     37  29  72 E3        30.49R
GOLDSBORO      CLEAR     34  26  70 E5        30.51R WCI  30
KINSTON        CLEAR     30  27  86 CALM      30.53R
KENANSVILLE    PTCLDY    32  27  80 CALM      30.52R
NEW BERN       CLEAR     37  29  72 E9        30.53R WCI  30
CHERRY POINT   CLEAR     41  29  62 NE10      30.52R
BEAUFORT       CLEAR     39  27  62 NE7       30.51R WCI  34
JACKSONVILLE   PTCLDY    36  30  79 N7        30.50R WCI  30
WILMINGTON     PTCLDY    33  28  81 NE8       30.49R WCI  26
$$





USA.gov is the U.S. government's official web portal to all federal, state and local government web resources and services.